Regional Weather Roundup
Issued by NWS

Home | Current Version | Previous Version | Graphics & Text | Print | Product List | Glossary On
Versions: 1 2 3 4 5 6 7 8 9 10 11 12 13 14 15 16 17 18 19 20 21 22 23 24 25 26 27 28 29 30 31 32 33 34 35 36 37 38 39 40 41 42 43 44 45 46 47 48 49 50
000
ASUS43 KBIS 170910
RWRND

NORTH DAKOTA REGIONAL WEATHER ROUNDUP
NATIONAL WEATHER SERVICE BISMARCK ND
300 AM CST SUN DEC 17 2017

NOTE: "FAIR" INDICATES FEW OR NO CLOUDS BELOW 12,000 FEET WITH NO
SIGNIFICANT WEATHER AND/OR OBSTRUCTIONS TO VISIBILITY.


NDZ001>003-009>011-017-171000-
NORTHWEST NORTH DAKOTA

CITY           SKY/WX    TMP DP  RH WIND       PRES   REMARKS
WILLISTON      CLEAR     19  17  92 S5        30.02F WCI  12
MINOT          CLEAR     24  17  74 SW12      30.00S WCI  13
MINOT AFB      CLEAR     19  15  82 W10       29.99S WCI   8
$$

NDZ018>021-031>035-040>046-171000-
SOUTHWEST NORTH DAKOTA

CITY           SKY/WX    TMP DP  RH WIND       PRES   REMARKS
BISMARCK       PTCLDY    25  21  85 SW3       30.05F
DICKINSON      CLOUDY    20  16  84 W7        30.00F WCI  11
GARRISON         N/A     24  18  77 W10       30.01S WCI  14
HETTINGER ARPT CLOUDY    19  17  92 W3        30.04F
$$

NDZ004>008-012>016-024-026-027-054-171000-
NORTHEAST NORTH DAKOTA

CITY           SKY/WX    TMP DP  RH WIND       PRES   REMARKS
GRAND FORKS    CLOUDY    17  15  92 S7        30.03S WCI   8
GRND FRKS AFB  CLOUDY    19  16  90 SW6       30.02S WCI  11
DEVILS LAKE    CLOUDY    19  16  88 SW7       30.01S WCI  10
$$

NDZ022-023-025-028>030-036>039-047>053-171000-
SOUTHEAST NORTH DAKOTA

CITY           SKY/WX    TMP DP  RH WIND       PRES   REMARKS
FARGO          CLOUDY    24  23  96 S6        30.07S WCI  17
JAMESTOWN      CLOUDY    26  24  92 W6        30.03S WCI  19
$$




USA.gov is the U.S. government's official web portal to all federal, state and local government web resources and services.